Regional Weather Roundup
Issued by NWS

Home | Current Version | Previous Version | Graphics & Text | Print | Product List | Glossary On
Versions: 1 2 3 4 5 6 7 8 9 10 11 12 13 14 15 16 17 18 19 20 21 22 23 24 25 26 27 28 29 30 31 32 33 34 35 36 37 38 39 40 41 42 43 44 45 46 47 48 49 50
766
ASUS43 KFSD 220802
RWRSD

WEATHER ROUNDUP FOR SOUTH DAKOTA
NATIONAL WEATHER SERVICE SIOUX FALLS SD
300 AM CDT FRI SEP 22 2017

NOTE: "FAIR" INDICATES FEW OR NO CLOUDS BELOW 12,000 FEET WITH NO
SIGNIFICANT WEATHER AND/OR OBSTRUCTIONS TO VISIBILITY.


SDZ001>005-009-010-012>017-220900-
NORTHWEST AND NORTH CENTRAL SOUTH DAKOTA

CITY           SKY/WX    TMP DP  RH WIND       PRES   REMARKS
BUFFALO          N/A     52  35  52 NE20      29.77S
FAITH            N/A     53  45  74 N21       29.71F
MOBRIDGE       CLEAR     61  51  70 N18       29.66F
$$

SDZ012>016-024>037-041>051-057-063-072>074-220900-
SOUTHWEST AND SOUTH CENTRAL SOUTH DAKOTA

CITY           SKY/WX    TMP DP  RH WIND       PRES   REMARKS
RAPID CTY ARPT NOT AVBL
PIERRE         CLEAR     65  61  87 NE7       29.57F
CUSTER         CLOUDY    47  37  68 N9        29.79S
ELLSWORTH AFB  CLEAR     53  38  57 N22G33    29.76S
PHILIP         CLEAR     58  47  66 NW9       29.63R
PINE RIDGE     CLEAR     55  43  63 N9        29.68S
SPEARFISH      FAIR      46  37  71 W5        29.86F
WINNER         FAIR      78  64  61 S21       29.59S
$$

SDZ004>011-016>023-039-040-220900-
NORTHEAST SOUTH DAKOTA

CITY           SKY/WX    TMP DP  RH WIND       PRES   REMARKS
ABERDEEN       CLEAR     68  67  96 N8        29.66S
WATERTOWN      CLEAR     72  71  97 SE9       29.69S
BROOKINGS      CLEAR     74  71  91 SE12      29.72R
SISSETON         N/A     69  66  90 W6        29.72R
$$

SDZ017-020-022-023-036>040-048>070-220900-
SOUTHEAST SOUTH DAKOTA

CITY           SKY/WX    TMP DP  RH WIND       PRES   REMARKS
SIOUX FALLS    CLEAR     79  73  82 S14       29.72S
HURON          CLEAR     74  71  91 SE13      29.61F
CHAMBERLAIN    CLEAR     77  70  78 SE17G26   29.59F
MITCHELL       CLEAR     79  72  79 S12G23    29.64S
YANKTON        CLEAR     80  72  76 S18       29.69S
$$

ABBREVIATIONS USED IN REMARKS
   TC - TEMPERATURE IN CELSIUS
  WCI - WIND CHILL INDEX
   HX - HEAT INDEX
  VSB - VISIBILITY





USA.gov is the U.S. government's official web portal to all federal, state and local government web resources and services.